| time (UTC) | temp F | wind direction | speed MPH | gust MPH | rain 1hr in | rain 24hr in | rain mn in | humidity % | barometer mb |
| 20260506123553 | 64 | 114 | 3.0 | 10.0 | 0.00 | 0.00 | 0.00 | 55 | 1028.9 |
| 20260506123052 | 64 | 111 | 4.0 | 10.0 | 0.00 | 0.00 | 0.00 | 56 | 1028.8 |
| 20260506122553 | 63 | 119 | 4.0 | 9.0 | 0.00 | 0.00 | 0.00 | 57 | 1028.8 |
| 20260506122052 | 63 | 97 | 4.0 | 9.0 | 0.00 | 0.00 | 0.00 | 59 | 1028.8 |
| 20260506121558 | 63 | 103 | 2.0 | 7.0 | 0.00 | 0.00 | 0.00 | 61 | 1028.8 |
| 20260506121052 | 63 | 137 | 2.0 | 7.0 | 0.00 | 0.00 | 0.00 | 61 | 1028.9 |
| 20260506120553 | 63 | 137 | 2.0 | 4.0 | 0.00 | 0.00 | 0.00 | 62 | 1028.8 |
| 20260506120110 | 63 | 137 | 2.0 | 4.0 | 0.00 | 0.00 | 0.00 | 62 | 1028.7 |
| 20260506115552 | 63 | 137 | 1.0 | 3.0 | 0.00 | 0.00 | 0.00 | 62 | 1028.6 |
| 20260506115051 | 63 | 137 | 1.0 | 3.0 | 0.00 | 0.00 | 0.00 | 62 | 1028.7 |
| 20260506114612 | 63 | 138 | 1.0 | 3.0 | 0.00 | 0.00 | 0.00 | 61 | 1028.6 |
| 20260506114052 | 63 | 138 | 1.0 | 3.0 | 0.00 | 0.00 | 0.00 | 61 | 1028.5 |
| 20260506113552 | 64 | 138 | 1.0 | 4.0 | 0.00 | 0.00 | 0.00 | 61 | 1028.5 |
| 20260506113058 | 64 | 138 | 1.0 | 4.0 | 0.00 | 0.00 | 0.00 | 61 | 1028.6 |
| 20260506112553 | 64 | 138 | 1.0 | 3.0 | 0.00 | 0.00 | 0.00 | 60 | 1028.4 |
| 20260506112052 | 64 | 138 | 1.0 | 3.0 | 0.00 | 0.00 | 0.00 | 60 | 1028.5 |
| 20260506111558 | 64 | 138 | 1.0 | 4.0 | 0.00 | 0.00 | 0.00 | 60 | 1028.4 |
| 20260506111052 | 64 | 138 | 2.0 | 4.0 | 0.00 | 0.00 | 0.00 | 59 | 1028.4 |
| 20260506110553 | 65 | 138 | 1.0 | 4.0 | 0.00 | 0.00 | 0.00 | 59 | 1028.3 |
| 20260506110059 | 65 | 138 | 1.0 | 4.0 | 0.00 | 0.00 | 0.00 | 58 | 1028.4 |
| 20260506105556 | 65 | 138 | 1.0 | 5.0 | 0.00 | 0.00 | 0.00 | 58 | 1028.3 |
| 20260506105052 | 65 | 138 | 2.0 | 5.0 | 0.00 | 0.00 | 0.00 | 58 | 1028.3 |
| 20260506104553 | 65 | 138 | 2.0 | 5.0 | 0.00 | 0.00 | 0.00 | 58 | 1028.3 |
| 20260506104109 | 65 | 138 | 2.0 | 5.0 | 0.00 | 0.00 | 0.00 | 57 | 1028.3 |
| 20260506103552 | 66 | 138 | 2.0 | 5.0 | 0.00 | 0.00 | 0.00 | 57 | 1028.3 |
| 20260506103053 | 66 | 138 | 3.0 | 7.0 | 0.00 | 0.00 | 0.00 | 57 | 1028.2 |
| 20260506102553 | 66 | 139 | 2.0 | 7.0 | 0.00 | 0.00 | 0.00 | 56 | 1028.2 |
| 20260506102052 | 66 | 138 | 3.0 | 7.0 | 0.00 | 0.00 | 0.00 | 56 | 1028.2 |
| 20260506101552 | 66 | 139 | 2.0 | 7.0 | 0.00 | 0.00 | 0.00 | 56 | 1028.1 |
| 20260506101053 | 66 | 139 | 2.0 | 5.0 | 0.00 | 0.00 | 0.00 | 55 | 1028.0 |
| 20260506100552 | 67 | 138 | 1.0 | 7.0 | 0.00 | 0.00 | 0.00 | 55 | 1027.9 |
| 20260506100050 | 67 | 138 | 3.0 | 7.0 | 0.00 | 0.00 | 0.00 | 55 | 1028.0 |
| 20260506095552 | 67 | 138 | 3.0 | 7.0 | 0.00 | 0.00 | 0.00 | 55 | 1027.9 |
| 20260506095053 | 67 | 138 | 2.0 | 5.0 | 0.00 | 0.00 | 0.00 | 54 | 1027.8 |
| 20260506094557 | 67 | 137 | 2.0 | 8.0 | 0.00 | 0.00 | 0.00 | 54 | 1027.7 |
| 20260506094052 | 68 | 137 | 2.0 | 9.0 | 0.00 | 0.00 | 0.00 | 53 | 1027.6 |
| 20260506093552 | 68 | 137 | 4.0 | 9.0 | 0.00 | 0.00 | 0.00 | 53 | 1027.6 |
| 20260506093109 | 68 | 143 | 3.0 | 7.0 | 0.00 | 0.00 | 0.00 | 53 | 1027.6 |
| 20260506092552 | 68 | 143 | 2.0 | 8.0 | 0.00 | 0.00 | 0.00 | 53 | 1027.6 |
| 20260506092052 | 68 | 143 | 3.0 | 8.0 | 0.00 | 0.00 | 0.00 | 53 | 1027.5 |
| 20260506091553 | 68 | 143 | 1.0 | 8.0 | 0.00 | 0.00 | 0.00 | 53 | 1027.4 |
| 20260506091052 | 69 | 143 | 3.0 | 8.0 | 0.00 | 0.00 | 0.00 | 53 | 1027.4 |
| 20260506090552 | 69 | 144 | 3.0 | 9.0 | 0.00 | 0.00 | 0.00 | 53 | 1027.4 |
| 20260506090058 | 69 | 127 | 2.0 | 10.0 | 0.00 | 0.00 | 0.00 | 53 | 1027.3 |
| 20260506085552 | 69 | 129 | 3.0 | 10.0 | 0.00 | 0.00 | 0.00 | 53 | 1027.4 |
| 20260506085052 | 69 | 123 | 3.0 | 10.0 | 0.00 | 0.00 | 0.00 | 53 | 1027.3 |
| 20260506084554 | 69 | 135 | 3.0 | 7.0 | 0.00 | 0.00 | 0.00 | 53 | 1027.3 |
| 20260506084053 | 69 | 140 | 3.0 | 11.0 | 0.00 | 0.00 | 0.00 | 52 | 1027.3 |
| 20260506083553 | 69 | 138 | 4.0 | 11.0 | 0.00 | 0.00 | 0.00 | 52 | 1027.4 |
| 20260506083053 | 70 | 130 | 6.0 | 11.0 | 0.00 | 0.00 | 0.00 | 51 | 1027.3 |
| 20260506082556 | 70 | 134 | 5.0 | 13.0 | 0.00 | 0.00 | 0.00 | 51 | 1027.3 |
| 20260506082052 | 70 | 126 | 5.0 | 13.0 | 0.00 | 0.00 | 0.00 | 51 | 1027.3 |
| 20260506081551 | 70 | 145 | 7.0 | 13.0 | 0.00 | 0.00 | 0.00 | 51 | 1027.3 |
| 20260506081052 | 70 | 137 | 5.0 | 12.0 | 0.00 | 0.00 | 0.00 | 51 | 1027.3 |
| 20260506080552 | 70 | 129 | 6.0 | 12.0 | 0.00 | 0.00 | 0.00 | 51 | 1027.3 |
| 20260506080104 | 70 | 133 | 6.0 | 13.0 | 0.00 | 0.00 | 0.00 | 51 | 1027.2 |
| 20260506073103 | 70 | 131 | 5.0 | 10.0 | 0.00 | 0.00 | 0.00 | 51 | 1027.2 |
| 20260506072556 | 71 | 134 | 5.0 | 11.0 | 0.00 | 0.00 | 0.00 | 51 | 1027.2 |
| 20260506072056 | 71 | 121 | 5.0 | 11.0 | 0.00 | 0.00 | 0.00 | 51 | 1027.2 |
| 20260506071552 | 71 | 134 | 4.0 | 10.0 | 0.00 | 0.00 | 0.00 | 51 | 1027.1 |
| 20260506071052 | 71 | 126 | 5.0 | 11.0 | 0.00 | 0.00 | 0.00 | 50 | 1027.1 |
| 20260506070552 | 71 | 109 | 4.0 | 14.0 | 0.00 | 0.00 | 0.00 | 49 | 1027.1 |
| 20260506062052 | 72 | 105 | 5.0 | 9.0 | 0.00 | 0.00 | 0.00 | 49 | 1027.1 |
| 20260506061601 | 72 | 101 | 5.0 | 10.0 | 0.00 | 0.00 | 0.00 | 50 | 1027.1 |
| 20260506061052 | 72 | 55 | 4.0 | 10.0 | 0.00 | 0.00 | 0.00 | 49 | 1027.1 |
| 20260506060553 | 72 | 128 | 5.0 | 10.0 | 0.00 | 0.00 | 0.00 | 49 | 1027.1 |
| 20260506051052 | 70 | 46 | 4.0 | 11.0 | 0.00 | 0.00 | 0.00 | 52 | 1027.4 |
| 20260506050552 | 70 | 92 | 5.0 | 11.0 | 0.00 | 0.00 | 0.00 | 52 | 1027.4 |
| 20260506045053 | 70 | 103 | 5.0 | 12.0 | 0.00 | 0.00 | 0.00 | 52 | 1027.6 |
| 20260506044601 | 70 | 113 | 6.0 | 12.0 | 0.00 | 0.00 | 0.00 | 53 | 1027.7 |
| 20260506044052 | 70 | 96 | 6.0 | 13.0 | 0.00 | 0.00 | 0.00 | 53 | 1027.7 |
| 20260506043556 | 70 | 58 | 6.0 | 13.0 | 0.00 | 0.00 | 0.00 | 52 | 1027.8 |
| 20260506043103 | 70 | 45 | 4.0 | 11.0 | 0.00 | 0.00 | 0.00 | 53 | 1027.8 |
| 20260506042553 | 70 | 15 | 5.0 | 11.0 | 0.00 | 0.00 | 0.00 | 53 | 1027.9 |
| 20260506042053 | 70 | 94 | 5.0 | 11.0 | 0.00 | 0.00 | 0.00 | 53 | 1028.0 |
| 20260506041607 | 69 | 107 | 5.0 | 11.0 | 0.00 | 0.00 | 0.00 | 55 | 1028.1 |
| 20260506041054 | 69 | 88 | 5.0 | 13.0 | 0.00 | 0.00 | 0.00 | 55 | 1028.2 |
| 20260506040552 | 69 | 112 | 6.0 | 13.0 | 0.00 | 0.00 | 0.00 | 55 | 1028.2 |
| 20260506035552 | 69 | 123 | 8.0 | 12.0 | 0.00 | 0.00 | 0.00 | 56 | 1028.3 |
| 20260506035052 | 69 | 92 | 4.0 | 11.0 | 0.00 | 0.00 | 0.00 | 56 | 1028.3 |
| 20260506034602 | 68 | 42 | 6.0 | 12.0 | 0.00 | 0.00 | 0.00 | 57 | 1028.4 |
| 20260506034051 | 68 | 42 | 5.0 | 13.0 | 0.00 | 0.00 | 0.00 | 58 | 1028.4 |
| 20260506033552 | 67 | 30 | 6.0 | 13.0 | 0.00 | 0.00 | 0.00 | 57 | 1028.5 |
| 20260506033104 | 67 | 38 | 5.0 | 13.0 | 0.00 | 0.00 | 0.00 | 58 | 1028.6 |
| 20260506032553 | 67 | 90 | 5.0 | 11.0 | 0.00 | 0.00 | 0.00 | 58 | 1028.7 |
| 20260506032054 | 67 | 48 | 4.0 | 12.0 | 0.00 | 0.00 | 0.00 | 59 | 1028.6 |
| 20260506031603 | 67 | 87 | 7.0 | 12.0 | 0.00 | 0.00 | 0.00 | 59 | 1028.8 |
| 20260506031053 | 66 | 124 | 6.0 | 11.0 | 0.00 | 0.00 | 0.00 | 59 | 1028.9 |
| 20260506030552 | 66 | 117 | 6.0 | 11.0 | 0.00 | 0.00 | 0.00 | 60 | 1028.9 |
| 20260506030109 | 66 | 352 | 6.0 | 15.0 | 0.00 | 0.00 | 0.00 | 60 | 1028.8 |
| 20260506025554 | 65 | 102 | 6.0 | 16.0 | 0.00 | 0.00 | 0.00 | 61 | 1028.8 |
| 20260506025052 | 65 | 91 | 9.0 | 16.0 | 0.00 | 0.00 | 0.00 | 61 | 1028.9 |
| 20260506024613 | 65 | 92 | 7.0 | 13.0 | 0.00 | 0.00 | 0.00 | 60 | 1028.9 |
| 20260506024053 | 65 | 54 | 6.0 | 12.0 | 0.00 | 0.00 | 0.00 | 61 | 1029.1 |
| 20260506023552 | 65 | 59 | 5.0 | 12.0 | 0.00 | 0.00 | 0.00 | 62 | 1029.0 |
| 20260506023105 | 64 | 61 | 6.0 | 13.0 | 0.00 | 0.00 | 0.00 | 62 | 1029.0 |
| 20260506022553 | 64 | 44 | 6.0 | 13.0 | 0.00 | 0.00 | 0.00 | 63 | 1029.1 |
| 20260506022052 | 64 | 30 | 7.0 | 13.0 | 0.00 | 0.00 | 0.00 | 63 | 1029.1 |
| 20260506021556 | 63 | 11 | 7.0 | 13.0 | 0.00 | 0.00 | 0.00 | 64 | 1029.1 |
| 20260506021055 | 63 | 57 | 6.0 | 13.0 | 0.00 | 0.00 | 0.00 | 64 | 1029.2 |
| 20260506020552 | 63 | 69 | 7.0 | 13.0 | 0.00 | 0.00 | 0.00 | 64 | 1029.2 |
| 20260506020119 | 63 | 46 | 4.0 | 10.0 | 0.00 | 0.00 | 0.00 | 64 | 1029.2 |
| 20260506015553 | 63 | 13 | 5.0 | 10.0 | 0.00 | 0.00 | 0.00 | 64 | 1029.2 |
| 20260506015053 | 63 | 56 | 5.0 | 10.0 | 0.00 | 0.00 | 0.00 | 64 | 1029.2 |
| 20260506014553 | 62 | 98 | 4.0 | 9.0 | 0.00 | 0.00 | 0.00 | 65 | 1029.3 |
| 20260506014054 | 62 | 39 | 5.0 | 9.0 | 0.00 | 0.00 | 0.00 | 65 | 1029.3 |
| 20260506013552 | 62 | 47 | 5.0 | 9.0 | 0.00 | 0.00 | 0.00 | 65 | 1029.3 |
| 20260506013052 | 63 | 11 | 3.0 | 10.0 | 0.00 | 0.00 | 0.00 | 66 | 1029.3 |
| 20260506012552 | 62 | 11 | 3.0 | 10.0 | 0.00 | 0.00 | 0.00 | 65 | 1029.3 |
| 20260506012053 | 62 | 95 | 4.0 | 11.0 | 0.00 | 0.00 | 0.00 | 66 | 1029.4 |
| 20260506011600 | 62 | 130 | 2.0 | 12.0 | 0.00 | 0.00 | 0.00 | 67 | 1029.4 |
| 20260506011055 | 61 | 95 | 6.0 | 12.0 | 0.00 | 0.00 | 0.00 | 67 | 1029.3 |
| 20260506010552 | 61 | 86 | 5.0 | 12.0 | 0.00 | 0.00 | 0.00 | 68 | 1029.3 |
| 20260506010058 | 61 | 88 | 6.0 | 12.0 | 0.00 | 0.00 | 0.00 | 68 | 1029.2 |
| 20260506005549 | 61 | 73 | 4.0 | 9.0 | 0.00 | 0.00 | 0.00 | 68 | 1029.1 |
| 20260506005051 | 60 | 59 | 4.0 | 9.0 | 0.00 | 0.00 | 0.00 | 68 | 1029.2 |
| 20260506004553 | 60 | 107 | 4.0 | 10.0 | 0.00 | 0.00 | 0.00 | 69 | 1029.1 |
| 20260506004052 | 60 | 65 | 4.0 | 10.0 | 0.00 | 0.00 | 0.00 | 69 | 1029.1 |
| 20260506003553 | 60 | 120 | 3.0 | 6.0 | 0.00 | 0.00 | 0.00 | 70 | 1029.1 |
| 20260506003058 | 60 | 123 | 3.0 | 8.0 | 0.00 | 0.00 | 0.00 | 70 | 1029.2 |
| 20260506002553 | 59 | 123 | 2.0 | 8.0 | 0.00 | 0.00 | 0.00 | 70 | 1029.0 |
| 20260506002052 | 59 | 123 | 3.0 | 7.0 | 0.00 | 0.00 | 0.00 | 71 | 1028.9 |
| 20260506001606 | 59 | 123 | 3.0 | 6.0 | 0.00 | 0.00 | 0.00 | 72 | 1028.9 |
| 20260506001053 | 59 | 123 | 2.0 | 6.0 | 0.00 | 0.00 | 0.00 | 72 | 1028.9 |
| 20260506000555 | 58 | 123 | 2.0 | 4.0 | 0.00 | 0.00 | 0.00 | 73 | 1028.7 |
| 20260506000122 | 58 | 123 | 2.0 | 4.0 | 0.00 | 0.00 | 0.00 | 73 | 1028.8 |
| 20260505235552 | 58 | 123 | 1.0 | 4.0 | 0.00 | 0.00 | 0.00 | 74 | 1028.8 |
| 20260505235052 | 57 | 123 | 2.0 | 4.0 | 0.00 | 0.00 | 0.00 | 75 | 1028.6 |
| 20260505234552 | 57 | 123 | 1.0 | 4.0 | 0.00 | 0.00 | 0.00 | 76 | 1028.6 |
| 20260505234055 | 56 | 0 | 0.0 | 3.0 | 0.00 | 0.00 | 0.00 | 77 | 1028.6 |
| 20260505233553 | 56 | 0 | 0.0 | 3.0 | 0.00 | 0.00 | 0.00 | 77 | 1028.6 |
| 20260505233055 | 55 | 123 | 0.0 | 2.0 | 0.00 | 0.00 | 0.00 | 78 | 1028.4 |
| 20260505232553 | 55 | 0 | 0.0 | 1.0 | 0.00 | 0.00 | 0.00 | 79 | 1028.2 |
| 20260505232052 | 55 | 0 | 0.0 | 1.0 | 0.00 | 0.00 | 0.00 | 80 | 1028.2 |
| 20260505231557 | 54 | 0 | 0.0 | 1.0 | 0.00 | 0.00 | 0.00 | 79 | 1028.2 |
| 20260505231052 | 54 | 0 | 0.0 | 2.0 | 0.00 | 0.00 | 0.00 | 79 | 1028.1 |
| 20260505230552 | 54 | 0 | 0.0 | 2.0 | 0.00 | 0.00 | 0.00 | 79 | 1028.1 |
| 20260505230055 | 54 | 0 | 0.0 | 3.0 | 0.00 | 0.00 | 0.00 | 79 | 1027.9 |
| 20260505225554 | 54 | 0 | 0.0 | 3.0 | 0.00 | 0.00 | 0.00 | 79 | 1028.0 |
| 20260505225052 | 54 | 124 | 0.0 | 4.0 | 0.00 | 0.00 | 0.00 | 79 | 1028.0 |
| 20260505224558 | 54 | 0 | 0.0 | 4.0 | 0.00 | 0.00 | 0.00 | 79 | 1027.7 |
| 20260505224057 | 54 | 124 | 0.0 | 3.0 | 0.00 | 0.00 | 0.00 | 79 | 1027.7 |
| 20260505223552 | 54 | 124 | 1.0 | 3.0 | 0.00 | 0.00 | 0.00 | 79 | 1027.8 |
| 20260505223056 | 54 | 124 | 0.0 | 2.0 | 0.00 | 0.00 | 0.00 | 78 | 1027.7 |
| 20260505222552 | 54 | 0 | 0.0 | 2.0 | 0.00 | 0.00 | 0.00 | 78 | 1027.5 |
| 20260505222052 | 55 | 0 | 0.0 | 3.0 | 0.00 | 0.00 | 0.00 | 77 | 1027.5 |
| 20260505221600 | 55 | 0 | 1.0 | 6.0 | 0.00 | 0.00 | 0.00 | 77 | 1027.4 |
| 20260505221053 | 55 | 0 | 0.0 | 6.0 | 0.00 | 0.00 | 0.00 | 77 | 1027.3 |
| 20260505220552 | 55 | 0 | 1.0 | 6.0 | 0.00 | 0.00 | 0.00 | 78 | 1027.3 |
| 20260505220106 | 55 | 0 | 2.0 | 4.0 | 0.00 | 0.00 | 0.00 | 78 | 1027.4 |
| 20260505215553 | 55 | 124 | 1.0 | 4.0 | 0.00 | 0.00 | 0.00 | 78 | 1027.4 |
| 20260505215052 | 55 | 124 | 1.0 | 3.0 | 0.00 | 0.00 | 0.00 | 78 | 1027.2 |
| 20260505214605 | 55 | 124 | 1.0 | 4.0 | 0.00 | 0.00 | 0.00 | 78 | 1027.2 |
| 20260505214052 | 55 | 124 | 2.0 | 4.0 | 0.00 | 0.00 | 0.00 | 78 | 1027.2 |
| 20260505213552 | 55 | 124 | 1.0 | 3.0 | 0.00 | 0.00 | 0.00 | 77 | 1027.1 |
| 20260505213051 | 55 | 124 | 1.0 | 6.0 | 0.00 | 0.00 | 0.00 | 77 | 1027.3 |
| 20260505212552 | 55 | 124 | 1.0 | 6.0 | 0.00 | 0.00 | 0.00 | 76 | 1027.2 |
| 20260505212053 | 55 | 124 | 2.0 | 5.0 | 0.00 | 0.00 | 0.00 | 76 | 1027.1 |
| 20260505211629 | 55 | 124 | 1.0 | 4.0 | 0.00 | 0.00 | 0.00 | 76 | 1027.0 |
| 20260505211056 | 55 | 124 | 1.0 | 4.0 | 0.00 | 0.00 | 0.00 | 75 | 1027.1 |
| 20260505210552 | 56 | 0 | 0.0 | 0.0 | 0.00 | 0.00 | 0.00 | 75 | 1027.0 |
| 20260505210053 | 56 | 0 | 0.0 | 3.0 | 0.00 | 0.00 | 0.00 | 75 | 1026.9 |
| 20260505205552 | 56 | 0 | 0.0 | 3.0 | 0.00 | 0.00 | 0.00 | 75 | 1026.8 |
| 20260505205051 | 56 | 0 | 0.0 | 3.0 | 0.00 | 0.00 | 0.00 | 75 | 1026.7 |
| 20260505204604 | 56 | 0 | 0.0 | 3.0 | 0.00 | 0.00 | 0.00 | 75 | 1026.9 |
| 20260505204052 | 56 | 0 | 1.0 | 3.0 | 0.00 | 0.00 | 0.00 | 74 | 1026.8 |
| 20260505203551 | 56 | 124 | 0.0 | 6.0 | 0.00 | 0.00 | 0.00 | 74 | 1026.8 |
| 20260505203056 | 56 | 124 | 0.0 | 6.0 | 0.00 | 0.00 | 0.00 | 75 | 1026.8 |
| 20260505202553 | 56 | 124 | 2.0 | 4.0 | 0.00 | 0.00 | 0.00 | 75 | 1026.8 |
| 20260505202053 | 56 | 124 | 1.0 | 4.0 | 0.00 | 0.00 | 0.00 | 74 | 1026.8 |
| 20260505201557 | 56 | 125 | 1.0 | 8.0 | 0.00 | 0.00 | 0.00 | 74 | 1026.7 |
| 20260505201052 | 56 | 125 | 2.0 | 8.0 | 0.00 | 0.00 | 0.00 | 74 | 1026.8 |
| 20260505200554 | 56 | 125 | 2.0 | 6.0 | 0.00 | 0.00 | 0.00 | 74 | 1026.8 |
| 20260505200054 | 56 | 125 | 1.0 | 6.0 | 0.00 | 0.00 | 0.00 | 74 | 1026.7 |
| 20260505195552 | 56 | 0 | 2.0 | 5.0 | 0.00 | 0.00 | 0.00 | 74 | 1026.8 |
| 20260505195055 | 56 | 125 | 2.0 | 4.0 | 0.00 | 0.00 | 0.00 | 73 | 1026.7 |
| 20260505194558 | 56 | 0 | 1.0 | 3.0 | 0.00 | 0.00 | 0.00 | 73 | 1026.8 |
| 20260505194053 | 56 | 0 | 0.0 | 2.0 | 0.00 | 0.00 | 0.00 | 72 | 1026.8 |
| 20260505193552 | 57 | 0 | 0.0 | 4.0 | 0.00 | 0.00 | 0.00 | 72 | 1026.8 |
| 20260505193055 | 57 | 0 | 0.0 | 4.0 | 0.00 | 0.00 | 0.00 | 71 | 1026.6 |
| 20260505192554 | 57 | 125 | 1.0 | 4.0 | 0.00 | 0.00 | 0.00 | 71 | 1026.7 |
| 20260505192052 | 57 | 126 | 1.0 | 4.0 | 0.00 | 0.00 | 0.00 | 71 | 1026.7 |
| 20260505191555 | 57 | 126 | 1.0 | 5.0 | 0.00 | 0.00 | 0.00 | 70 | 1026.6 |
| 20260505191051 | 58 | 127 | 1.0 | 5.0 | 0.00 | 0.00 | 0.00 | 70 | 1026.7 |
| 20260505190554 | 58 | 129 | 2.0 | 5.0 | 0.00 | 0.00 | 0.00 | 69 | 1026.6 |
| 20260505190103 | 58 | 130 | 2.0 | 7.0 | 0.00 | 0.00 | 0.00 | 69 | 1026.4 |
| 20260505185551 | 58 | 131 | 2.0 | 7.0 | 0.00 | 0.00 | 0.00 | 69 | 1026.5 |
| 20260505185052 | 58 | 132 | 3.0 | 7.0 | 0.00 | 0.00 | 0.00 | 69 | 1026.4 |
| 20260505184557 | 58 | 133 | 2.0 | 7.0 | 0.00 | 0.00 | 0.00 | 68 | 1026.4 |
| 20260505184053 | 59 | 134 | 2.0 | 7.0 | 0.00 | 0.00 | 0.00 | 67 | 1026.6 |
| 20260505183553 | 59 | 133 | 2.0 | 5.0 | 0.00 | 0.00 | 0.00 | 68 | 1026.6 |
| 20260505183052 | 59 | 133 | 3.0 | 5.0 | 0.00 | 0.00 | 0.00 | 67 | 1026.6 |
| 20260505182553 | 59 | 134 | 1.0 | 4.0 | 0.00 | 0.00 | 0.00 | 67 | 1026.5 |
| 20260505182053 | 59 | 135 | 2.0 | 5.0 | 0.00 | 0.00 | 0.00 | 67 | 1026.4 |
| 20260505181627 | 59 | 135 | 2.0 | 7.0 | 0.00 | 0.00 | 0.00 | 67 | 1026.5 |
| 20260505181055 | 59 | 135 | 1.0 | 7.0 | 0.00 | 0.00 | 0.00 | 66 | 1026.5 |
| 20260505180552 | 59 | 134 | 1.0 | 5.0 | 0.00 | 0.00 | 0.00 | 66 | 1026.5 |
| 20260505180105 | 59 | 135 | 2.0 | 7.0 | 0.00 | 0.00 | 0.00 | 66 | 1026.5 |
| 20260505175553 | 59 | 136 | 2.0 | 7.0 | 0.00 | 0.00 | 0.00 | 65 | 1026.4 |
| 20260505175052 | 59 | 136 | 3.0 | 7.0 | 0.00 | 0.00 | 0.00 | 65 | 1026.3 |
| 20260505174552 | 59 | 136 | 2.0 | 5.0 | 0.00 | 0.00 | 0.00 | 65 | 1026.5 |
| 20260505174051 | 60 | 135 | 2.0 | 8.0 | 0.00 | 0.00 | 0.00 | 65 | 1026.4 |
| 20260505173552 | 60 | 132 | 1.0 | 8.0 | 0.00 | 0.00 | 0.00 | 64 | 1026.4 |
| 20260505173052 | 60 | 130 | 3.0 | 8.0 | 0.00 | 0.00 | 0.00 | 64 | 1026.3 |
| 20260505172552 | 60 | 130 | 3.0 | 9.0 | 0.00 | 0.00 | 0.00 | 64 | 1026.3 |
| 20260505172051 | 60 | 131 | 3.0 | 9.0 | 0.00 | 0.00 | 0.00 | 64 | 1026.3 |
| 20260505171558 | 60 | 131 | 2.0 | 9.0 | 0.00 | 0.00 | 0.00 | 64 | 1026.2 |
| 20260505171053 | 61 | 131 | 3.0 | 10.0 | 0.00 | 0.00 | 0.00 | 64 | 1026.2 |
| 20260505170552 | 60 | 133 | 3.0 | 13.0 | 0.00 | 0.00 | 0.00 | 64 | 1026.2 |
| 20260505170052 | 60 | 122 | 5.0 | 13.0 | 0.00 | 0.00 | 0.00 | 65 | 1026.2 |
| 20260505165552 | 60 | 128 | 3.0 | 7.0 | 0.00 | 0.00 | 0.00 | 65 | 1026.1 |
| 20260505165052 | 60 | 130 | 3.0 | 7.0 | 0.00 | 0.00 | 0.00 | 65 | 1026.3 |
| 20260505164553 | 60 | 131 | 2.0 | 7.0 | 0.00 | 0.00 | 0.00 | 66 | 1026.2 |
| 20260505164052 | 60 | 131 | 2.0 | 7.0 | 0.00 | 0.00 | 0.00 | 65 | 1026.2 |
| 20260505163555 | 60 | 130 | 2.0 | 7.0 | 0.00 | 0.00 | 0.00 | 65 | 1026.2 |
| 20260505163054 | 60 | 129 | 2.0 | 7.0 | 0.00 | 0.00 | 0.00 | 65 | 1026.1 |
| 20260505162551 | 60 | 129 | 3.0 | 8.0 | 0.00 | 0.00 | 0.00 | 65 | 1026.1 |
| 20260505162051 | 60 | 129 | 3.0 | 9.0 | 0.00 | 0.00 | 0.00 | 64 | 1026.1 |
| 20260505161554 | 60 | 128 | 3.0 | 9.0 | 0.00 | 0.00 | 0.00 | 64 | 1026.0 |
| 20260505161052 | 60 | 130 | 3.0 | 8.0 | 0.00 | 0.00 | 0.00 | 64 | 1026.0 |
| 20260505160552 | 60 | 130 | 3.0 | 8.0 | 0.00 | 0.00 | 0.00 | 64 | 1026.0 |
| 20260505153057 | 58 | 184 | 1.0 | 4.0 | 0.00 | 0.00 | 0.00 | 70 | 1026.1 |
| 20260505152552 | 58 | 184 | 1.0 | 6.0 | 0.00 | 0.00 | 0.00 | 71 | 1026.1 |
| 20260505152050 | 58 | 184 | 2.0 | 6.0 | 0.00 | 0.00 | 0.00 | 72 | 1026.1 |
| 20260505151602 | 58 | 182 | 3.0 | 6.0 | 0.00 | 0.00 | 0.00 | 73 | 1026.1 |
| 20260505151057 | 57 | 189 | 2.0 | 6.0 | 0.00 | 0.00 | 0.00 | 74 | 1026.0 |
| 20260505150552 | 57 | 198 | 1.0 | 4.0 | 0.00 | 0.00 | 0.00 | 74 | 1026.0 |
| 20260505140552 | 59 | 0 | 0.0 | 5.0 | 0.00 | 0.00 | 0.00 | 75 | 1026.2 |
| 20260505124556 | 61 | 199 | 2.0 | 5.0 | 0.00 | 0.00 | 0.00 | 72 | 1026.0 |
| 20260505124054 | 61 | 199 | 1.0 | 5.0 | 0.00 | 0.00 | 0.00 | 72 | 1026.0 |